#timestamp,LO_Frequency,Hit 
1499770815.8,286047002.5,N
1499770835.7,286047000.0,N
1499770855.5,286046999.1,N
1499770875.3,286047000.6,N
1499770895.2,286046996.5,N
1499770915.0,286047002.8,N
1499770915.9,286047002.8,N
1499770935.7,286046998.6,N
1499770955.6,286046998.4,N
1499770975.4,286046996.5,N
1499770995.2,286046996.9,N
1499771015.9,286046997.6,N
1499771035.7,286047001.0,N
1499771055.5,286046998.9,N
1499771075.4,286047000.3,N
1499771095.2,286046998.8,N
1499771115.0,286046995.5,N
1499771115.9,286046995.5,N
1499771135.8,286046997.6,N
1499771155.6,286046995.0,N
1499771175.4,286046995.2,N
1499771195.2,286046996.1,N
1499771215.1,286046997.4,N
1499771216.0,286046997.4,N
1499771235.8,286046996.7,N
1499771255.6,286046998.0,N
1499771275.5,286046997.8,N
1499771295.3,286046995.2,N
1499771315.1,286046993.7,N
1499771335.9,286046994.8,N
1499771355.7,286046991.9,Y
1499771375.5,286046996.2,N
1499771395.4,286046996.4,N
1499771415.2,286046993.7,N
1499771435.0,286046994.4,N
1499771435.9,286046994.4,N
1499771455.8,286046994.5,N
1499771475.6,286046994.0,N
1499771495.4,286046993.9,N
1499771515.3,286046994.9,N
1499771535.1,286046996.2,N
1499771536.0,286046996.2,N
1499771555.8,286046993.6,Y
1499771575.7,286046997.3,N
1499771595.5,286046997.4,N
1499771615.3,286046998.9,N
1499771635.1,286046999.2,N
1499771655.9,286046995.1,N
1499771675.7,286046994.9,N
1499771695.5,286046995.1,N
1499771715.4,286046991.8,Y
1499771735.2,286046995.8,N
1499771755.0,286046990.6,Y
1499771756.0,286046990.6,Y
1499771775.8,286046996.5,N
1499771795.8,286046996.9,N
1499771815.7,286046996.1,N
1499771835.5,286046994.3,N
1499771855.3,286046992.0,Y
1499771875.2,286046995.2,N
1499771895.0,286046999.3,N
1499771895.9,286046999.3,N
1499771915.7,286046999.1,N
1499771935.6,286046994.9,N
1499771955.4,286046997.7,N
1499771975.2,286046995.7,N
1499771995.1,286046992.1,Y
1499771996.0,286046992.1,Y
1499772015.8,286046999.9,N
1499772035.6,286047002.3,N
1499772055.5,286047000.6,N
1499772075.3,286046997.1,N
1499772095.1,286046997.0,N
1499772115.9,286046999.2,N
1499772135.7,286046999.1,N
1499772155.5,286046998.1,N
1499772175.4,286046998.4,N
1499772195.2,286046997.9,N
1499772215.0,286046995.1,N
1499772215.9,286046995.1,N
1499772235.8,286046995.7,N
1499772255.6,286046995.4,N
1499772275.4,286046999.4,N
1499772295.2,286046998.9,N
1499772315.1,286046999.0,N
1499772316.0,286046999.0,N
1499772335.8,286046999.6,N
1499772355.6,286047001.0,N
1499772375.7,286047001.1,N
1499772395.5,286046999.8,N
1499772415.3,286047017.2,Y
1499772435.2,286047025.7,Y
1499772455.0,286047037.5,Y
1499772455.9,286047037.5,Y
1499772475.8,286047038.0,Y
1499772495.6,286047034.4,N
1499772515.4,286047032.4,N
1499772535.3,286047030.9,N
1499772555.1,286047029.7,N
1499772556.0,286047029.7,N
1499772575.8,286047025.3,N
1499772595.7,286047023.9,N
1499772615.5,286047024.0,N
1499772635.3,286047027.7,N
1499772655.2,286047025.3,N
1499772675.9,286047029.8,N
1499772695.7,286047027.8,N
1499772715.5,286047026.5,N
1499772735.4,286047027.9,N
1499772755.2,286047029.0,N
1499772775.0,286047032.0,N
1499772775.9,286047032.0,N
1499772795.8,286047030.4,N
1499772815.6,286047030.4,N
1499772835.4,286047031.4,N
1499772855.3,286047030.1,N
1499772875.1,286047032.0,N
1499772876.0,286047032.0,N
1499772895.8,286047034.1,N
1499772915.7,286047034.1,N
1499772935.5,286047034.0,N
1499772955.3,286047033.4,N
1499772975.1,286047033.5,N
1499772995.9,286047033.8,N
1499773015.7,286047035.3,N
1499773035.5,286047035.6,N
1499773055.4,286047035.1,N
1499773075.2,286047034.5,N
1499773095.0,286047033.9,N
1499773095.9,286047033.9,N
1499773115.8,286047035.7,Y
1499773135.6,286047006.9,N
1499773155.4,286047004.9,N
1499773175.3,286047005.3,N
1499773195.1,286047003.9,N
1499773196.0,286047003.9,N
1499773215.8,286047000.2,N
1499773235.7,286047000.3,N
1499773255.5,286047002.1,N
1499773275.3,286047002.1,N
1499773295.1,286047000.6,N
1499773315.9,286047001.2,N
1499773335.7,286046999.4,N
1499773355.5,286047000.0,N
1499773375.4,286047000.5,N
1499773395.2,286046996.8,N
1499773415.0,286046994.9,N
1499773415.9,286046994.9,N
1499773435.8,286046995.7,N
1499773455.6,286046994.4,N
1499773475.4,286046994.3,N
1499773495.2,286046994.0,N
1499773515.1,286046994.2,N
1499773516.0,286046994.2,N
1499773535.8,286046991.7,N
1499773555.6,286046993.0,N
1499773575.5,286046994.4,N
1499773595.3,286046992.7,N
1499773615.1,286046990.5,N
1499773635.9,286046989.7,N
1499773655.7,286046987.5,N
1499773675.5,286046989.1,N
1499773695.4,286046989.1,N
1499773715.2,286046987.4,N
1499773735.0,286046987.6,N
1499773735.9,286046987.6,N
1499773755.7,286046989.9,N
1499773775.6,286046991.3,N
